[[{"header":{"parameterUnit":"m.s-1","parameterCategory":2,"la1":30.2991,"la2":30.254,"lo1":-89.0895,"lo2":-89.0444,"dy":0.0017,"dx":0.0017,"nx":28,"ny":28,"refTime":"2025-01-14T03:00:00:Z","depth":"0","parameterNumber":2,"parameterNumberName":"U-component_of_CURRENTS"},"data":[0,0,0,0,0,0,0,0,0,0,0,0,0,0,0,0,0,0,0,0,0,0,0,0,0,0,0,0,0,0,0,0,0,0,0,0,0,0,0,0,0,0,0,0,0,0,0,0,0,0,0,0,0,0,0,0,0,0,0.3427,0.3427,0,0.3454,0.3454,0.3454,0.3463,0.3464,0.3464,0.3464,0.3417,0.3416,0.3415,0,0,0,0,0,0,0,0,0,0,0,0,0,0.3393,0.3393,0.3427,0.3427,0.3428,0.3454,0.3454,0.3454,0.3463,0.3464,0.3464,0.3464,0.3418,0.3416,0.3414,0,0,0,0,0,0,0,0,0,0,0,0,0,0.3409,0.3393,0.3427,0.3438,0.344,0.3454,0.3454,0.3454,0.3463,0.3464,0.3464,0.3464,0.3418,0.3416,0.3414,0.3394,0,0,0.3408,0.3407,0,0,0,0,0,0,0,0,0.3409,0.341,0.3436,0.3438,0.3439,0.3459,0.3426,0.3432,0.3463,0.3451,0.3464,0.3464,0.3426,0.3424,0.3424,0.3392,0.339,0.3407,0.3406,0.3405,0.3405,0,0,0,0,0,0,0,0.3407,0.3409,0.3434,0.3437,0.3439,0.3447,0.3449,0.3427,0.3432,0.3452,0.3453,0.3462,0.3426,0.3426,0.3423,0.339,0.3407,0.3406,0.3404,0.3403,0.3356,0.3356,0,0,0,0,0,0,0.341,0.3408,0.3433,0.3435,0.3429,0.3447,0.3449,0.3449,0.3434,0.3434,0.3462,0.3463,0.343,0.3425,0.3421,0.3409,0.3405,0.3403,0.3402,0.3356,0.3356,0.3356,0,0,0,0,0,0,0.3409,0.3412,0.3432,0.3426,0.3429,0.3448,0.3447,0.345,0.3459,0.3443,0.3441,0.347,0.343,0.3424,0.3411,0.3406,0.3402,0.34,0.3356,0.3356,0.3356,0.3375,0,0,0,0,0,0,0.3408,0.3411,0.3407,0.3426,0.343,0.3432,0.3448,0.345,0.3465,0.3466,0.3449,0.3445,0.343,0.3415,0.3409,0.3403,0.3399,0.3356,0.3356,0.3356,0.3375,0.3376,0.3377,0,0,0,0,0,0.3406,0.3388,0.3407,0.341,0.3425,0.3432,0.3434,0.3447,0.3465,0.3458,0.346,0.3446,0.3411,0.3413,0.3407,0.34,0.3355,0.3356,0.3356,0.3374,0.3376,0.3377,0,0,0,0,0,0,0.3346,0.3389,0.3409,0.3398,0.3417,0.3435,0.3427,0.3452,0.345,0.3451,0.3446,0.3441,0.3426,0.3412,0.3415,0.3387,0.3381,0.3379,0.3397,0.3398,0.3399,0.341,0.3397,0,0,0,0,0,0.3341,0.3347,0.3385,0.3371,0.3384,0.3414,0.342,0.3435,0.3441,0.3442,0.3432,0.3424,0.3419,0.341,0.3392,0.3376,0.3398,0.3368,0.3369,0.3371,0.3375,0.3427,0.3434,0.3356,0.3356,0.3356,0,0,0.331,0.3335,0.3336,0.3362,0.3376,0.3385,0.3416,0.3422,0.343,0.3435,0.3422,0.3422,0.3416,0.3401,0.3392,0.339,0.3403,0.3371,0.3372,0.3376,0.3428,0.3436,0.3443,0.3356,0.3356,0.3356,0,0,0.3253,0.328,0.3273,0.3297,0.3331,0.3355,0.3363,0.3388,0.34,0.3402,0.3411,0.342,0.3392,0.3398,0.3399,0.3398,0.3408,0.3383,0.3397,0.3447,0.3455,0.3461,0.3497,0.3507,0.3384,0.3384,0.3384,0,0.3212,0.3226,0.3266,0.3271,0.3296,0.3345,0.3351,0.3364,0.3379,0.3403,0.3394,0.341,0.3396,0.3418,0.3413,0.3401,0.3429,0.3393,0.3451,0.3458,0.3465,0.35,0.3511,0.3385,0.3385,0.3385,0.3385,0,0.3164,0.3184,0.3178,0.3216,0.3237,0.325,0.3295,0.3312,0.3343,0.3372,0.34,0.3398,0.3421,0.341,0.3407,0.3446,0.3449,0.3449,0.3452,0.3475,0.3509,0.352,0.3387,0.3386,0.3386,0.3386,0,0,0.3063,0.3135,0.3136,0.3167,0.3226,0.3237,0.3264,0.3318,0.3358,0.3368,0.3421,0.3414,0.3443,0.3446,0.3451,0.3482,0.3544,0.3483,0.3485,0.3526,0.3653,0.3641,0.3652,0.3562,0.3564,0.3565,0.3658,0,0.3022,0.3039,0.309,0.3111,0.3135,0.3209,0.324,0.3293,0.3341,0.3392,0.3433,0.3467,0.3449,0.3471,0.3503,0.3542,0.3574,0.3518,0.3618,0.362,0.3615,0.3665,0.3553,0.3626,0.3668,0.367,0.3671,0,0.2972,0.3002,0.3021,0.3112,0.313,0.3145,0.3241,0.3273,0.3367,0.3415,0.3473,0.351,0.3566,0.3544,0.3634,0.3603,0.3626,0.3647,0.3652,0.3643,0.3629,0.361,0.3644,0.358,0.3688,0.3687,0.3686,0,0.2907,0.2962,0.2986,0.301,0.3101,0.3129,0.3181,0.3275,0.3328,0.343,0.3491,0.3565,0.3619,0.3664,0.3714,0.3684,0.3815,0.3782,0.3791,0.379,0.3715,0.3704,0.3705,0.3841,0.3841,0.3841,0.3841,0,0.2865,0.2882,0.2955,0.2966,0.301,0.3087,0.3143,0.3218,0.3327,0.3398,0.3493,0.3568,0.3654,0.3739,0.3756,0.3825,0.3859,0.3809,0.3823,0.3716,0.3705,0.3661,0.3624,0.3844,0.3844,0.3843,0.3842,0,0.2792,0.284,0.287,0.2954,0.2979,0.3004,0.3113,0.3161,0.3281,0.3378,0.3419,0.3593,0.3717,0.3797,0.3895,0.3889,0.3849,0.395,0.3816,0.3812,0.3731,0.3699,0.3588,0.3467,0.3968,0.3969,0.3969,0,0.2757,0.2764,0.2836,0.2851,0.2884,0.2937,0.2984,0.3115,0.318,0.3386,0.3437,0.3609,0.3722,0.3891,0.3933,0.3995,0.3867,0.3902,0.3813,0.3729,0.3704,0.3552,0.3446,0.3719,0.3717,0.3716,0.3714,0,0.2693,0.2717,0.2743,0.2778,0.2813,0.2853,0.2933,0.2978,0.3141,0.3249,0.341,0.3521,0.3737,0.3788,0.39,0.3912,0.3731,0.3874,0.3824,0.3545,0.3342,0.3232,0.3651,0.3702,0.3703,0.3704,0.3705,0.3705,0.2639,0.2639,0.2674,0.2695,0.2731,0.275,0.2749,0.2856,0.2945,0.3078,0.3276,0.341,0.3606,0.377,0.3764,0.3726,0.3664,0.3619,0.36,0.3464,0.3296,0.3688,0.3732,0.3733,0.3735,0.3736,0.3737,0,0.2559,0.2569,0.2591,0.2605,0.2595,0.2648,0.27,0.2685,0.2737,0.2929,0.3055,0.327,0.337,0.3505,0.3591,0.3482,0.3291,0.3383,0.3139,0.3055,0.3456,0.3396,0.3323,0.3323,0.3323,0.3323,0.3324,0.3324,0.2519,0.2498,0.2505,0.2455,0.2461,0.2405,0.2398,0.2413,0.2514,0.2633,0.2773,0.2938,0.3283,0.3475,0.3434,0.3337,0.3054,0.2931,0.2889,0.32,0.3219,0.3237,0.3172,0.3054,0.3053,0.2353,0.2348,0.2345]},{"header":{"parameterUnit":"m.s-1","parameterCategory":2,"la1":30.2991,"la2":30.254,"lo1":-89.0895,"lo2":-89.0444,"dy":0.0017,"dx":0.0017,"nx":28,"ny":28,"refTime":"2025-01-14T03:00:00:Z","depth":"0","parameterNumber":3,"parameterNumberName":"V-component_of_CURRENTS"},"data":[0,0,0,0,0,0,0,0,0,0,0,0,0,0,0,0,0,0,0,0,0,0,0,0,0,0,0,0,0,0,0,0,0,0,0,0,0,0,0,0,0,0,0,0,0,0,0,0,0,0,0,0,0,0,0,0,0,0,-0.0298,-0.0299,0,-0.0372,-0.0373,-0.0374,-0.0424,-0.0424,-0.0424,-0.0424,-0.0504,-0.0506,-0.0508,0,0,0,0,0,0,0,0,0,0,0,0,0,-0.0265,-0.0265,-0.0298,-0.0299,-0.0299,-0.0372,-0.0374,-0.0375,-0.0424,-0.0424,-0.0424,-0.0424,-0.0504,-0.0506,-0.0508,0,0,0,0,0,0,0,0,0,0,0,0,0,-0.0305,-0.0265,-0.0298,-0.0331,-0.0334,-0.0372,-0.0374,-0.0375,-0.0424,-0.0424,-0.0424,-0.0424,-0.0503,-0.0506,-0.0509,-0.0524,0,0,-0.0518,-0.0519,0,0,0,0,0,0,0,0,-0.0303,-0.0307,-0.0325,-0.0329,-0.0333,-0.0387,-0.0391,-0.0424,-0.0424,-0.0392,-0.0424,-0.0424,-0.0464,-0.047,-0.0487,-0.0527,-0.0531,-0.0518,-0.052,-0.0521,-0.0522,0,0,0,0,0,0,0,-0.03,-0.0304,-0.033,-0.0326,-0.033,-0.0365,-0.037,-0.0398,-0.0428,-0.0395,-0.0398,-0.0403,-0.0466,-0.0484,-0.0489,-0.0532,-0.0518,-0.0521,-0.0523,-0.0524,-0.0556,-0.0555,0,0,0,0,0,0,-0.0282,-0.0301,-0.0327,-0.0332,-0.0315,-0.0365,-0.0371,-0.0371,-0.0428,-0.0436,-0.0403,-0.0405,-0.0479,-0.0485,-0.0492,-0.0473,-0.0521,-0.0524,-0.0526,-0.0557,-0.0556,-0.0554,0,0,0,0,0,0,-0.0281,-0.0284,-0.0324,-0.0317,-0.0324,-0.0364,-0.0365,-0.0372,-0.0384,-0.0433,-0.0442,-0.0405,-0.0479,-0.0488,-0.0503,-0.0478,-0.0526,-0.0528,-0.0558,-0.0556,-0.0555,-0.0461,0,0,0,0,0,0,-0.028,-0.0283,-0.0275,-0.0315,-0.0324,-0.0323,-0.0364,-0.0374,-0.0386,-0.0389,-0.0438,-0.0446,-0.048,-0.0498,-0.0505,-0.0483,-0.0531,-0.0559,-0.0557,-0.0555,-0.0465,-0.0456,-0.0449,0,0,0,0,0,-0.0279,-0.0255,-0.0274,-0.0277,-0.0311,-0.0321,-0.0328,-0.036,-0.0385,-0.0375,-0.0413,-0.0444,-0.0492,-0.0499,-0.0509,-0.0487,-0.056,-0.0558,-0.0556,-0.0469,-0.0458,-0.0449,0,0,0,0,0,0,-0.0226,-0.0259,-0.028,-0.0266,-0.0284,-0.0328,-0.0323,-0.0352,-0.0377,-0.0383,-0.0436,-0.0446,-0.0448,-0.0481,-0.0488,-0.049,-0.0529,-0.0529,-0.046,-0.045,-0.0442,-0.0425,-0.0533,0,0,0,0,0,-0.0213,-0.0211,-0.0244,-0.0231,-0.0239,-0.0283,-0.0293,-0.0315,-0.0344,-0.0356,-0.039,-0.0426,-0.0448,-0.0459,-0.0485,-0.0488,-0.0524,-0.0479,-0.0471,-0.0464,-0.0456,-0.0495,-0.0489,-0.0547,-0.0547,-0.0547,0,0,-0.0188,-0.0207,-0.0204,-0.0221,-0.0243,-0.0234,-0.0289,-0.0292,-0.0285,-0.036,-0.0359,-0.0398,-0.0443,-0.0444,-0.0448,-0.0467,-0.0463,-0.0461,-0.0454,-0.045,-0.0492,-0.0487,-0.0482,-0.0546,-0.0546,-0.0546,0,0,-0.0129,-0.0153,-0.0131,-0.0143,-0.0166,-0.0192,-0.0188,-0.0225,-0.0241,-0.0249,-0.0299,-0.0323,-0.0358,-0.0384,-0.0403,-0.0366,-0.0419,-0.0372,-0.0317,-0.0354,-0.035,-0.0346,-0.0371,-0.0371,-0.0367,-0.0367,-0.0367,0,-0.0092,-0.008,-0.0122,-0.0104,-0.0106,-0.0166,-0.0139,-0.016,-0.0196,-0.0205,-0.0231,-0.0289,-0.0328,-0.0335,-0.0322,-0.0346,-0.0375,-0.0349,-0.0343,-0.0341,-0.0339,-0.0365,-0.0366,-0.0362,-0.0363,-0.0363,-0.0364,0,-0.0024,-0.0015,-0.0001,-0.0003,-0.0005,0.0006,-0.0028,-0.0034,-0.0069,-0.0099,-0.0117,-0.0178,-0.0213,-0.0227,-0.0265,-0.0266,-0.0292,-0.0328,-0.0366,-0.0327,-0.0358,-0.036,-0.0356,-0.0357,-0.0359,-0.036,0,0,0.0058,0.0049,0.0054,0.0066,0.0044,0.0053,0.0065,0.0055,0.0064,0.0015,0.002,-0.0034,-0.0083,-0.0108,-0.0163,-0.0197,-0.0209,-0.0249,-0.0254,-0.027,-0.0282,-0.0293,-0.0298,-0.0247,-0.0248,-0.0248,-0.0304,0,0.0124,0.0173,0.015,0.02,0.022,0.0175,0.0194,0.0177,0.0145,0.0135,0.0059,0.0041,-0.0033,-0.0049,-0.0095,-0.018,-0.0214,-0.019,-0.0322,-0.0325,-0.0337,-0.03,-0.0278,-0.0326,-0.0307,-0.0308,-0.0308,0,0.0195,0.0214,0.0271,0.0289,0.0296,0.0316,0.0324,0.0335,0.0299,0.0269,0.0223,0.0162,0.0108,0.0036,-0.0088,-0.007,-0.0163,-0.0237,-0.0241,-0.0287,-0.0341,-0.0366,-0.0332,-0.0506,-0.0313,-0.0312,-0.0312,0,0.0261,0.03,0.0345,0.035,0.0364,0.0383,0.039,0.0374,0.0397,0.035,0.0354,0.0264,0.0232,0.0102,-0.0049,-0.0069,-0.0188,-0.0239,-0.0336,-0.0338,-0.0362,-0.0365,-0.0509,-0.0326,-0.0326,-0.0326,-0.0325,0,0.0328,0.0366,0.0377,0.04,0.0466,0.045,0.0505,0.0495,0.0498,0.0538,0.0427,0.0441,0.0247,0.0155,-0.0005,-0.0166,-0.0157,-0.0314,-0.035,-0.0326,-0.0326,-0.0515,-0.0632,-0.0328,-0.0327,-0.0327,-0.0326,0,0.039,0.0393,0.045,0.0478,0.0496,0.0542,0.0591,0.0634,0.0614,0.0664,0.066,0.0583,0.0465,0.0268,0.0068,-0.009,-0.0362,-0.0322,-0.0272,-0.0302,-0.0556,-0.0667,-0.0875,-0.095,-0.0433,-0.0434,-0.0434,0,0.0423,0.0457,0.0514,0.0557,0.057,0.0629,0.0679,0.069,0.0746,0.0763,0.0808,0.0717,0.0681,0.0382,0.0092,-0.0179,-0.0372,-0.0354,-0.0395,-0.0556,-0.0708,-0.0799,-0.0853,-0.0388,-0.0388,-0.0388,-0.0388,0,0.049,0.0506,0.0552,0.0639,0.0699,0.0776,0.0849,0.0916,0.0943,0.0992,0.1052,0.1031,0.0755,0.0513,0.0129,-0.0083,-0.0483,-0.0364,-0.055,-0.0695,-0.0785,-0.0878,-0.0362,-0.0388,-0.0388,-0.0388,-0.0388,-0.0388,0.054,0.0585,0.0644,0.0731,0.0807,0.0912,0.0987,0.1083,0.1196,0.1287,0.1257,0.1264,0.0888,0.0384,0.0074,-0.0471,-0.0498,-0.0635,-0.0758,-0.0834,-0.0909,-0.0384,-0.0442,-0.0443,-0.0443,-0.0443,-0.0443,0,0.0602,0.065,0.0733,0.0833,0.0928,0.0956,0.1098,0.1186,0.1336,0.1437,0.1493,0.1335,0.0864,0.0354,-0.0366,-0.077,-0.0935,-0.1012,-0.1143,-0.1179,-0.0721,-0.072,-0.0817,-0.0816,-0.0816,-0.0816,-0.0816,-0.0816,0.0635,0.072,0.0759,0.0917,0.0991,0.1121,0.1206,0.1349,0.1461,0.1587,0.1619,0.1611,0.124,-0.0057,-0.0957,-0.1183,-0.1473,-0.1557,-0.1703,-0.1401,-0.1375,-0.1351,-0.1376,-0.1608,-0.1609,-0.2086,-0.2091,-0.2095]}],[{"header":{"parameterUnit":"m.s-1","parameterCategory":2,"la1":30.2991,"la2":30.254,"lo1":-89.0895,"lo2":-89.0444,"dy":0.0017,"dx":0.0017,"nx":28,"ny":28,"refTime":"2025-01-14T03:00:00:Z","depth":"2","parameterNumber":2,"parameterNumberName":"U-component_of_CURRENTS"},"data":[0,0,0,0,0,0,0,0,0,0,0,0,0,0,0,0,0,0,0,0,0,0,0,0,0,0,0,0,0,0,0,0,0,0,0,0,0,0,0,0,0,0,0,0,0,0,0,0,0,0,0,0,0,0,0,0,0,0,0.3019,0.3019,0,0.3029,0.3029,0.3029,0.3067,0.3068,0.3069,0.3071,0.3083,0.3083,0.3082,0,0,0,0,0,0,0,0,0,0,0,0,0,0.2999,0.2999,0.3019,0.3019,0.302,0.3029,0.3029,0.3029,0.3067,0.3068,0.307,0.3071,0.3084,0.3083,0.3082,0,0,0,0,0,0,0,0,0,0,0,0,0,0.3005,0.2999,0.3019,0.3043,0.3045,0.3029,0.3029,0.3029,0.3066,0.3068,0.307,0.3072,0.3084,0.3083,0.3082,0.3037,0,0,0.3078,0.3077,0,0,0,0,0,0,0,0,0.3004,0.3005,0.3039,0.3041,0.3044,0.3052,0.3027,0.3033,0.3066,0.3054,0.3071,0.3073,0.3074,0.3074,0.3066,0.3038,0.3038,0.3078,0.3077,0.3077,0.3076,0,0,0,0,0,0,0,0.3004,0.3005,0.3019,0.3039,0.3042,0.3042,0.3045,0.3028,0.3051,0.3055,0.3059,0.3066,0.3076,0.3067,0.3067,0.3039,0.3078,0.3077,0.3076,0.3076,0.3092,0.3093,0,0,0,0,0,0,0.301,0.3004,0.3019,0.302,0.3033,0.3042,0.3044,0.3044,0.3051,0.3055,0.3064,0.3068,0.3068,0.3068,0.3068,0.3109,0.3077,0.3075,0.3075,0.3091,0.3092,0.3094,0,0,0,0,0,0,0.301,0.3011,0.3018,0.3016,0.3017,0.3041,0.304,0.3044,0.3063,0.3059,0.3062,0.3084,0.307,0.3069,0.3089,0.3106,0.3075,0.3074,0.309,0.3091,0.3093,0.3131,0,0,0,0,0,0,0.3009,0.301,0.3009,0.3016,0.3018,0.3033,0.3039,0.3043,0.3065,0.307,0.3076,0.3077,0.3071,0.3091,0.3088,0.3104,0.3073,0.3088,0.309,0.3092,0.3128,0.3134,0.3138,0,0,0,0,0,0.3008,0.2999,0.3009,0.3011,0.3016,0.3034,0.3035,0.3054,0.3064,0.3077,0.3089,0.3079,0.3103,0.3091,0.3087,0.3103,0.3087,0.309,0.3092,0.3126,0.3132,0.3138,0,0,0,0,0,0,0.2969,0.3002,0.3013,0.3009,0.3034,0.3043,0.3048,0.3063,0.3079,0.3086,0.3085,0.3088,0.3113,0.3102,0.3089,0.3117,0.3096,0.3097,0.3122,0.3129,0.3134,0.3133,0.3072,0,0,0,0,0,0.2964,0.298,0.3005,0.3003,0.3017,0.3036,0.3044,0.3062,0.3078,0.3087,0.3094,0.3102,0.3112,0.3119,0.3121,0.3126,0.3137,0.3138,0.3143,0.3147,0.3146,0.3193,0.3202,0.3102,0.3102,0.3102,0,0,0.2949,0.2968,0.2976,0.3,0.3015,0.3032,0.3045,0.3067,0.3085,0.3083,0.3106,0.3118,0.3119,0.3137,0.3147,0.3135,0.3183,0.3151,0.3154,0.3151,0.3197,0.3207,0.3215,0.3104,0.3104,0.3103,0,0,0.2929,0.2945,0.2958,0.2982,0.3019,0.3033,0.3048,0.3075,0.3096,0.3118,0.3129,0.3157,0.316,0.3174,0.3178,0.3209,0.321,0.3212,0.3233,0.328,0.3288,0.3296,0.3328,0.3338,0.3213,0.3213,0.3214,0,0.2911,0.2928,0.2962,0.2981,0.3003,0.3039,0.3058,0.3075,0.3107,0.3132,0.3137,0.3177,0.3177,0.321,0.3224,0.322,0.3244,0.3208,0.3286,0.3294,0.3301,0.3332,0.3343,0.3216,0.3215,0.3215,0.3215,0,0.2905,0.2925,0.2934,0.2978,0.3002,0.3026,0.3066,0.3096,0.3126,0.3152,0.3204,0.3214,0.3245,0.325,0.3242,0.3294,0.3294,0.3289,0.327,0.3314,0.3344,0.3354,0.3219,0.3218,0.3217,0.3217,0,0,0.2853,0.2921,0.2924,0.2951,0.301,0.3026,0.3069,0.3122,0.316,0.3196,0.325,0.327,0.3294,0.3301,0.3306,0.3337,0.3405,0.3334,0.3336,0.3364,0.3507,0.3482,0.3491,0.3421,0.3423,0.3424,0.3509,0,0.2844,0.2877,0.2919,0.2954,0.2978,0.3037,0.3079,0.3132,0.3181,0.3239,0.3278,0.3324,0.3309,0.3335,0.3367,0.3402,0.3434,0.3382,0.3462,0.3464,0.3434,0.3503,0.3222,0.3272,0.352,0.3521,0.3523,0,0.2825,0.2856,0.2887,0.2964,0.2981,0.3007,0.3092,0.3134,0.3227,0.3274,0.3335,0.3372,0.3431,0.341,0.3495,0.3467,0.3488,0.3506,0.351,0.3478,0.3458,0.3268,0.3282,0.354,0.3539,0.3537,0.3536,0,0.2771,0.2833,0.286,0.2883,0.2968,0.3,0.3051,0.3142,0.3195,0.3299,0.3357,0.3432,0.3486,0.3528,0.3573,0.3546,0.3665,0.3633,0.3627,0.3625,0.3395,0.337,0.3689,0.3689,0.3689,0.3689,0.3688,0,0.2745,0.2764,0.2836,0.2848,0.2895,0.2967,0.3028,0.31,0.3206,0.3274,0.3368,0.3436,0.3522,0.3599,0.3613,0.3668,0.3706,0.3646,0.3654,0.3402,0.3378,0.361,0.3599,0.3692,0.3691,0.369,0.369,0,0.268,0.2728,0.276,0.2842,0.2868,0.2898,0.3006,0.3053,0.3171,0.3264,0.3305,0.3465,0.3576,0.365,0.3739,0.3727,0.377,0.3772,0.347,0.3442,0.3683,0.3673,0.3773,0.3773,0.3773,0.3773,0.3773,0,0.2651,0.266,0.2733,0.2751,0.2786,0.2842,0.2889,0.3016,0.3077,0.3269,0.3316,0.3475,0.3567,0.3712,0.3726,0.3772,0.3803,0.3522,0.3415,0.3698,0.3696,0.3687,0.3677,0.312,0.3115,0.3111,0.3107,0,0.2595,0.2621,0.2648,0.2686,0.2723,0.2763,0.2843,0.2882,0.3038,0.3136,0.3275,0.3368,0.3539,0.3481,0.3567,0.3545,0.3495,0.3438,0.3818,0.3157,0.3093,0.3089,0.3098,0.3068,0.3072,0.3075,0.3077,0.3079,0.2548,0.255,0.2586,0.261,0.2649,0.2665,0.2664,0.2758,0.2836,0.2939,0.3117,0.3165,0.3243,0.3247,0.318,0.3136,0.3371,0.3197,0.3205,0.3219,0.3143,0.3084,0.3042,0.3046,0.3049,0.3052,0.3054,0,0.2475,0.2486,0.2509,0.2523,0.2513,0.2572,0.2616,0.2587,0.262,0.2749,0.2841,0.268,0.268,0.2746,0.264,0.2682,0.2603,0.2556,0.2402,0.2446,0.2484,0.2363,0.2059,0.2055,0.2052,0.2049,0,0,0.2438,0.2418,0.2424,0.2375,0.2385,0.233,0.2322,0.2305,0.2352,0.2337,0.2347,0.2552,0.2681,0.2317,0.2303,0.2152,0.2265,0.2074,0.2884,0.2747,0.2779,0.2885,0.2756,0,0,0,0,0]},{"header":{"parameterUnit":"m.s-1","parameterCategory":2,"la1":30.2991,"la2":30.254,"lo1":-89.0895,"lo2":-89.0444,"dy":0.0017,"dx":0.0017,"nx":28,"ny":28,"refTime":"2025-01-14T03:00:00:Z","depth":"2","parameterNumber":3,"parameterNumberName":"V-component_of_CURRENTS"},"data":[0,0,0,0,0,0,0,0,0,0,0,0,0,0,0,0,0,0,0,0,0,0,0,0,0,0,0,0,0,0,0,0,0,0,0,0,0,0,0,0,0,0,0,0,0,0,0,0,0,0,0,0,0,0,0,0,0,0,0.0066,0.0066,0,0.001,0.0009,0.0009,-0.0042,-0.0043,-0.0043,-0.0044,-0.015,-0.0152,-0.0154,0,0,0,0,0,0,0,0,0,0,0,0,0,0.0095,0.0095,0.0066,0.0065,0.0065,0.001,0.0009,0.0009,-0.0042,-0.0043,-0.0044,-0.0044,-0.0149,-0.0152,-0.0154,0,0,0,0,0,0,0,0,0,0,0,0,0,0.0064,0.0095,0.0066,0.0033,0.003,0.001,0.0009,0.0008,-0.0042,-0.0043,-0.0044,-0.0044,-0.0148,-0.0151,-0.0155,-0.016,0,0,-0.0165,-0.0167,0,0,0,0,0,0,0,0,0.0066,0.0063,0.0039,0.0036,0.0032,-0.0009,-0.0019,-0.005,-0.0042,-0.0015,-0.0044,-0.0045,-0.0106,-0.0113,-0.0122,-0.0164,-0.0169,-0.0166,-0.0168,-0.0169,-0.017,0,0,0,0,0,0,0,0.0068,0.0065,0.0043,0.0038,0.0034,0.001,0.0005,-0.0025,-0.0057,-0.0018,-0.0021,-0.0026,-0.0109,-0.0119,-0.0125,-0.0171,-0.0166,-0.0169,-0.0171,-0.0172,-0.0256,-0.0256,0,0,0,0,0,0,0.008,0.0068,0.0045,0.0042,0.0048,0.001,0.0005,0.0004,-0.0056,-0.0065,-0.0026,-0.0028,-0.0112,-0.0121,-0.0129,-0.0151,-0.0169,-0.0172,-0.0174,-0.0256,-0.0256,-0.0256,0,0,0,0,0,0,0.008,0.0078,0.0047,0.0053,0.0048,0.0011,0.0011,0.0003,-0.0014,-0.0061,-0.0072,-0.0037,-0.0113,-0.0124,-0.0163,-0.0155,-0.0174,-0.0177,-0.0256,-0.0256,-0.0256,-0.0186,0,0,0,0,0,0,0.0082,0.0079,0.0084,0.0055,0.0048,0.0033,0.0011,0.0003,-0.0015,-0.002,-0.0074,-0.0084,-0.0115,-0.0157,-0.0166,-0.016,-0.018,-0.0256,-0.0256,-0.0256,-0.0188,-0.0184,-0.018,0,0,0,0,0,0.0083,0.0093,0.0085,0.0082,0.0056,0.0034,0.0028,-0.0002,-0.0015,-0.0021,-0.0059,-0.0083,-0.0165,-0.016,-0.017,-0.0165,-0.0255,-0.0256,-0.0256,-0.019,-0.0185,-0.018,0,0,0,0,0,0,0.0111,0.0088,0.0079,0.0083,0.0059,0.0025,0.002,-0.0,-0.0033,-0.0039,-0.0085,-0.0098,-0.0128,-0.0159,-0.0152,-0.0192,-0.0214,-0.0217,-0.0161,-0.0156,-0.0152,-0.0127,-0.0183,0,0,0,0,0,0.0122,0.0118,0.0093,0.0094,0.0086,0.0053,0.0042,0.0022,-0.0011,-0.0026,-0.0065,-0.0105,-0.0136,-0.0156,-0.0191,-0.0211,-0.0238,-0.0217,-0.0212,-0.0209,-0.0196,-0.0234,-0.0231,-0.0258,-0.0258,-0.0258,0,0,0.0131,0.0119,0.0117,0.0099,0.008,0.0079,0.0044,0.0028,0.0026,-0.0032,-0.0053,-0.0094,-0.0139,-0.0162,-0.0179,-0.0188,-0.0216,-0.0209,-0.0205,-0.0195,-0.0234,-0.0231,-0.0229,-0.0258,-0.0258,-0.0258,0,0,0.0153,0.014,0.0148,0.0134,0.0111,0.0094,0.009,0.0055,0.0037,0.0013,-0.0026,-0.0062,-0.0114,-0.014,-0.016,-0.0156,-0.0195,-0.0172,-0.0129,-0.0165,-0.0163,-0.0161,-0.019,-0.0191,-0.0168,-0.0168,-0.0168,0,0.0169,0.0178,0.0146,0.0152,0.0151,0.0105,0.0119,0.0096,0.0051,0.0044,0.0013,-0.0055,-0.0099,-0.0114,-0.0115,-0.0144,-0.0171,-0.0139,-0.0158,-0.0157,-0.0156,-0.0186,-0.0188,-0.0165,-0.0165,-0.0166,-0.0166,0,0.0198,0.0206,0.0209,0.0206,0.0199,0.0199,0.0171,0.0156,0.0128,0.0103,0.007,0.0007,-0.003,-0.0053,-0.0083,-0.0097,-0.0119,-0.0147,-0.0163,-0.0149,-0.0182,-0.0185,-0.016,-0.0161,-0.0162,-0.0163,0,0,0.0236,0.0232,0.0235,0.0252,0.023,0.0233,0.0231,0.0222,0.0231,0.0169,0.0173,0.0105,0.0065,0.0041,-0.0009,-0.0044,-0.0068,-0.0088,-0.0091,-0.0103,-0.0144,-0.016,-0.0166,-0.01,-0.0101,-0.0101,-0.0167,0,0.0273,0.0307,0.0292,0.0328,0.0347,0.0315,0.0324,0.0307,0.0277,0.0264,0.0194,0.0171,0.0103,0.0088,0.0041,-0.0037,-0.0076,-0.0047,-0.0167,-0.017,-0.0176,-0.017,-0.0139,-0.0196,-0.0171,-0.0172,-0.0172,0,0.0315,0.0334,0.0378,0.0405,0.0412,0.0421,0.0438,0.044,0.0406,0.0378,0.0333,0.0279,0.0222,0.0158,0.0035,0.0056,-0.0035,-0.0104,-0.0109,-0.0147,-0.0193,-0.0209,-0.0204,-0.0179,-0.0179,-0.0178,-0.0178,0,0.037,0.0401,0.0442,0.0448,0.0464,0.048,0.0489,0.0474,0.0497,0.0451,0.0454,0.0365,0.0334,0.0209,0.0065,0.0049,-0.0072,-0.0115,-0.0215,-0.0217,-0.0226,-0.0228,-0.0203,-0.0203,-0.0203,-0.0203,-0.0203,0,0.0422,0.0457,0.047,0.0491,0.0553,0.054,0.0592,0.0583,0.0586,0.0624,0.0519,0.0528,0.0345,0.0254,0.0103,-0.0058,-0.0047,-0.02,-0.0234,-0.0201,-0.0201,-0.0216,-0.0216,-0.0205,-0.0205,-0.0204,-0.0204,0,0.0475,0.048,0.0533,0.0561,0.0578,0.0622,0.0672,0.0713,0.0694,0.074,0.0735,0.0657,0.0537,0.035,0.0156,0.0007,-0.0156,-0.0219,-0.0164,-0.0191,-0.0287,-0.0284,-0.0337,-0.0338,-0.0339,-0.0339,-0.034,0,0.0504,0.0535,0.0591,0.0632,0.0645,0.0702,0.0751,0.0764,0.0817,0.0828,0.0869,0.0774,0.0728,0.0435,0.016,-0.0102,-0.0147,-0.0259,-0.0291,-0.0272,-0.0301,-0.0295,-0.0291,-0.0278,-0.0278,-0.0278,-0.0278,0,0.0563,0.0578,0.0623,0.0706,0.0764,0.084,0.091,0.0973,0.1,0.1039,0.1084,0.1053,0.078,0.0532,0.0164,-0.0021,-0.0217,-0.0269,-0.0263,-0.0246,-0.0222,-0.0248,-0.0244,-0.0279,-0.0279,-0.0278,-0.0278,-0.0278,0.0608,0.065,0.0707,0.079,0.0864,0.0964,0.1036,0.1123,0.1224,0.129,0.1256,0.1206,0.0917,0.046,0.0138,-0.0216,-0.0205,-0.0334,-0.0332,-0.033,-0.0308,-0.0287,-0.0352,-0.0352,-0.0352,-0.0353,-0.0353,0,0.0664,0.071,0.0789,0.0884,0.0974,0.1005,0.1139,0.1213,0.1341,0.1395,0.1424,0.1155,0.0875,0.0526,0.0015,-0.0286,-0.0316,-0.0392,-0.0354,-0.0351,-0.0349,-0.0327,-0.0376,-0.0377,-0.0378,-0.0379,0,0,0.0694,0.0774,0.0811,0.0959,0.1031,0.1154,0.1234,0.1348,0.1418,0.1471,0.1446,0.1393,0.0985,0.0618,0.0209,-0.0086,-0.0157,-0.0153,-0.0101,-0.0006,-0.0,-0.0281,-0.024,0,0,0,0,0]}],[{"header":{"parameterUnit":"m.s-1","parameterCategory":2,"la1":30.2991,"la2":30.254,"lo1":-89.0895,"lo2":-89.0444,"dy":0.0017,"dx":0.0017,"nx":28,"ny":28,"refTime":"2025-01-14T03:00:00:Z","depth":"4","parameterNumber":2,"parameterNumberName":"U-component_of_CURRENTS"},"data":[0,0,0,0,0,0,0,0,0,0,0,0,0,0,0,0,0,0,0,0,0,0,0,0,0,0,0,0,0,0,0,0,0,0,0,0,0,0,0,0,0,0,0,0,0,0,0,0,0,0,0,0,0,0,0,0,0,0,0.1865,0.1866,0,0.194,0.194,0.1941,0.2,0.2001,0.2002,0.2003,0.2089,0.209,0.2092,0,0,0,0,0,0,0,0,0,0,0,0,0,0.1767,0.1769,0.1865,0.1866,0.1868,0.1939,0.194,0.1941,0.2,0.2001,0.2002,0.2003,0.2088,0.209,0.2092,0,0,0,0,0,0,0,0,0,0,0,0,0,0.182,0.1769,0.1865,0.1907,0.1912,0.1939,0.194,0.1941,0.2,0.2001,0.2002,0.2003,0.2088,0.209,0.2092,0.2081,0,0,0.2099,0.21,0,0,0,0,0,0,0,0,0.1817,0.1823,0.19,0.1905,0.191,0.1964,0.1938,0.199,0.1999,0.1964,0.2003,0.2004,0.2049,0.2054,0.2062,0.2085,0.2089,0.2099,0.2101,0.2102,0.2102,0,0,0,0,0,0,0,0.1813,0.182,0.1892,0.1901,0.1907,0.1921,0.1929,0.1947,0.1997,0.1967,0.1972,0.1984,0.2052,0.2059,0.2064,0.209,0.2099,0.2101,0.2103,0.2104,0.2247,0.2249,0,0,0,0,0,0,0.1808,0.1817,0.189,0.1895,0.1868,0.1922,0.1931,0.1943,0.1996,0.2006,0.1983,0.1987,0.2055,0.2062,0.2068,0.2178,0.2102,0.2104,0.2105,0.2244,0.2247,0.225,0,0,0,0,0,0,0.1806,0.1814,0.1887,0.1859,0.187,0.1922,0.1935,0.1944,0.1994,0.2009,0.2019,0.2028,0.2056,0.2064,0.2128,0.2177,0.2105,0.2107,0.2242,0.2245,0.2249,0.2322,0,0,0,0,0,0,0.1803,0.1813,0.1839,0.1859,0.1872,0.193,0.1935,0.1945,0.1998,0.2004,0.205,0.2057,0.2058,0.2124,0.213,0.2179,0.2109,0.2238,0.2243,0.2248,0.2316,0.2327,0.2337,0,0,0,0,0,0.1799,0.1823,0.184,0.185,0.19,0.1932,0.194,0.1978,0.1999,0.2026,0.2066,0.2058,0.2157,0.2128,0.2134,0.2185,0.2236,0.2242,0.2247,0.2311,0.2325,0.2337,0,0,0,0,0,0,0.18,0.1832,0.1851,0.1887,0.1921,0.1943,0.1979,0.2,0.2051,0.2073,0.2083,0.2093,0.2168,0.2167,0.2135,0.2242,0.2198,0.2205,0.2245,0.2258,0.2268,0.2252,0.2111,0,0,0,0,0,0.1809,0.1841,0.1869,0.1906,0.1924,0.1959,0.1985,0.2012,0.205,0.2075,0.211,0.2151,0.2187,0.2216,0.2245,0.2299,0.2295,0.2339,0.2349,0.2358,0.2351,0.2392,0.2404,0.2268,0.2268,0.2268,0,0,0.1823,0.1847,0.1867,0.191,0.1941,0.1975,0.1979,0.2032,0.2075,0.2075,0.216,0.2189,0.221,0.2276,0.2309,0.2287,0.2399,0.2365,0.2372,0.236,0.2399,0.2412,0.2423,0.2272,0.2271,0.227,0,0,0.185,0.1885,0.1916,0.1946,0.2,0.2018,0.2042,0.209,0.2131,0.2203,0.2218,0.2276,0.234,0.236,0.2376,0.246,0.2451,0.2485,0.2527,0.2568,0.2579,0.2588,0.2613,0.2624,0.2492,0.2492,0.2493,0,0.1869,0.1906,0.1933,0.1968,0.2001,0.2041,0.208,0.2121,0.2192,0.2228,0.2248,0.2353,0.2375,0.2436,0.2472,0.2482,0.25,0.2476,0.2579,0.2589,0.2597,0.262,0.2631,0.2497,0.2496,0.2496,0.2495,0,0.1903,0.195,0.1974,0.2029,0.2067,0.2112,0.216,0.2219,0.2276,0.2314,0.241,0.2446,0.2504,0.253,0.2529,0.2606,0.2599,0.2585,0.2542,0.2615,0.2635,0.2645,0.2503,0.2501,0.25,0.2499,0,0,0.1892,0.1981,0.1993,0.2027,0.2105,0.2131,0.2213,0.228,0.2336,0.242,0.2493,0.2565,0.2593,0.2612,0.2628,0.2664,0.2746,0.2659,0.266,0.2672,0.2838,0.2675,0.267,0.276,0.2762,0.2763,0.2832,0,0.1914,0.1981,0.2026,0.21,0.2132,0.2198,0.2266,0.2339,0.2409,0.2491,0.2547,0.2625,0.2623,0.2668,0.2706,0.2738,0.2776,0.2728,0.2774,0.2775,0.2612,0.2677,0.277,0.284,0.2842,0.2844,0.2845,0,0.1919,0.1965,0.2037,0.2128,0.2152,0.221,0.2313,0.2381,0.2493,0.2554,0.2636,0.2683,0.2764,0.2749,0.2837,0.2814,0.2834,0.2847,0.285,0.2671,0.263,0.275,0.2863,0.2861,0.286,0.2859,0.2858,0,0.1865,0.1966,0.2024,0.2056,0.2168,0.2227,0.2297,0.2408,0.2471,0.26,0.2662,0.2755,0.2823,0.2866,0.2909,0.289,0.2989,0.2962,0.2829,0.2818,0.291,0.2899,0.3015,0.3014,0.3014,0.3014,0.3014,0,0.1838,0.1888,0.2011,0.2039,0.2121,0.2211,0.2307,0.2392,0.2514,0.2583,0.2695,0.2751,0.2861,0.2927,0.2942,0.2916,0.3022,0.2836,0.2824,0.2942,0.2934,0.2918,0.2906,0.3017,0.3016,0.3016,0.3015,0,0.1762,0.1846,0.1917,0.2049,0.2097,0.2157,0.2305,0.2362,0.2498,0.2592,0.2642,0.2783,0.2863,0.2942,0.3019,0.2944,0.2943,0.2908,0.304,0.3034,0.2736,0.2727,0.2751,0.2745,0.2741,0.2737,0.2734,0,0.1725,0.1758,0.1906,0.1951,0.2021,0.2124,0.2191,0.234,0.2396,0.258,0.2608,0.2748,0.2821,0.2793,0.2892,0.291,0.2878,0.2856,0.2772,0.2722,0.271,0.2708,0.2705,0.2727,0.2726,0.2725,0.2724,0,0.1652,0.1726,0.1786,0.1881,0.1962,0.203,0.2139,0.216,0.2322,0.2468,0.2506,0.2545,0.2632,0.2681,0.2724,0.2728,0.2853,0.2809,0.2817,0.2738,0.2694,0.2685,0.2688,0.2709,0.2711,0.2712,0.2713,0,0.1605,0.1628,0.172,0.1785,0.188,0.1905,0.1974,0.2034,0.2105,0.23,0.231,0.2455,0.2597,0.2589,0.2626,0.2623,0.2577,0.248,0.2504,0.2522,0.2417,0.2326,0.2216,0,0,0,0,0,0.1541,0.1552,0.1612,0.167,0.1756,0.1807,0.1924,0.1992,0.2145,0.2112,0.22,0.2264,0.2311,0.2393,0.2344,0.254,0.2597,0.2473,0.2501,0.2624,0.2641,0.2539,0,0,0,0,0,0,0.1496,0.155,0.1568,0.1558,0.1574,0.1645,0.1708,0.1811,0.18,0.1964,0.2002,0.2132,0.2217,0.2315,0.2302,0.2328,0.2299,0.2574,0.2569,0.2614,0.263,0.2644,0.2544,0,0,0,0,0]},{"header":{"parameterUnit":"m.s-1","parameterCategory":2,"la1":30.2991,"la2":30.254,"lo1":-89.0895,"lo2":-89.0444,"dy":0.0017,"dx":0.0017,"nx":28,"ny":28,"refTime":"2025-01-14T03:00:00:Z","depth":"4","parameterNumber":3,"parameterNumberName":"V-component_of_CURRENTS"},"data":[0,0,0,0,0,0,0,0,0,0,0,0,0,0,0,0,0,0,0,0,0,0,0,0,0,0,0,0,0,0,0,0,0,0,0,0,0,0,0,0,0,0,0,0,0,0,0,0,0,0,0,0,0,0,0,0,0,0,0.0215,0.0214,0,0.0173,0.0172,0.0172,0.0151,0.0151,0.0151,0.0151,0.0082,0.0081,0.0079,0,0,0,0,0,0,0,0,0,0,0,0,0,0.0242,0.0242,0.0215,0.0214,0.0214,0.0173,0.0172,0.0172,0.0151,0.0151,0.0151,0.0151,0.0083,0.0081,0.0079,0,0,0,0,0,0,0,0,0,0,0,0,0,0.0219,0.0242,0.0215,0.0198,0.0197,0.0173,0.0172,0.0172,0.0151,0.0151,0.0151,0.0151,0.0084,0.0081,0.0078,0.0062,0,0,0.007,0.0069,0,0,0,0,0,0,0,0,0.022,0.0218,0.0201,0.02,0.0197,0.0167,0.0157,0.0134,0.0151,0.0168,0.0151,0.0151,0.0108,0.0103,0.0096,0.0059,0.0056,0.007,0.0068,0.0067,0.0066,0,0,0,0,0,0,0,0.0222,0.0219,0.0198,0.0201,0.0198,0.0181,0.0178,0.0152,0.0138,0.0167,0.0165,0.016,0.0107,0.0099,0.0094,0.0055,0.007,0.0067,0.0066,0.0065,-0.0014,-0.0014,0,0,0,0,0,0,0.0229,0.0221,0.02,0.0197,0.0209,0.0181,0.0177,0.0177,0.0139,0.0134,0.016,0.016,0.0103,0.0097,0.0092,0.0071,0.0067,0.0064,0.0063,-0.0013,-0.0014,-0.0014,0,0,0,0,0,0,0.0229,0.0227,0.0201,0.0208,0.0203,0.0181,0.018,0.0176,0.0168,0.0135,0.0129,0.0157,0.0103,0.0096,0.007,0.0068,0.0063,0.0061,-0.0013,-0.0014,-0.0014,0.0029,0,0,0,0,0,0,0.0231,0.0228,0.023,0.0208,0.0203,0.0188,0.018,0.0175,0.0166,0.0164,0.013,0.0123,0.0103,0.0074,0.0067,0.0064,0.0059,-0.0012,-0.0013,-0.0014,0.0028,0.003,0.0031,0,0,0,0,0,0.0232,0.0233,0.0231,0.0228,0.0207,0.0188,0.0184,0.0167,0.0166,0.0161,0.014,0.0124,0.0063,0.0072,0.0064,0.006,-0.0012,-0.0013,-0.0014,0.0027,0.0029,0.0031,0,0,0,0,0,0,0.0243,0.0231,0.0227,0.0225,0.0209,0.0184,0.018,0.017,0.015,0.015,0.0121,0.0113,0.0088,0.0066,0.0076,0.0033,0.0022,0.0019,0.0056,0.0058,0.0059,0.0081,0.0056,0,0,0,0,0,0.0248,0.0249,0.0231,0.0228,0.0223,0.0203,0.0194,0.0184,0.0163,0.0155,0.013,0.0102,0.0077,0.0062,0.0035,0.0013,-0.0008,0.0003,0.0005,0.0007,0.0018,-0.0016,-0.0016,-0.0018,-0.0018,-0.0018,0,0,0.0251,0.0245,0.0244,0.0231,0.0219,0.0216,0.0198,0.0187,0.0184,0.015,0.0136,0.0107,0.0072,0.0049,0.0035,0.0031,-0.0006,0.0005,0.0007,0.0018,-0.0017,-0.0017,-0.0016,-0.0019,-0.0018,-0.0018,0,0,0.0258,0.0253,0.0258,0.0248,0.0235,0.0224,0.0223,0.02,0.0191,0.0171,0.0147,0.0121,0.0078,0.0057,0.004,0.0032,0.0003,0.0017,0.0045,0.0012,0.0012,0.0012,-0.0019,-0.0022,0.0019,0.0019,0.0019,0,0.0263,0.0269,0.0254,0.0255,0.0257,0.0231,0.0239,0.0222,0.0192,0.019,0.0171,0.0117,0.0084,0.0065,0.006,0.0038,0.0014,0.0044,0.0016,0.0015,0.0014,-0.0018,-0.0021,0.0021,0.002,0.002,0.002,0,0.0272,0.028,0.0281,0.0282,0.0278,0.0278,0.026,0.0252,0.0237,0.022,0.0194,0.0147,0.012,0.0097,0.0076,0.0056,0.004,0.0023,0.0017,0.0018,-0.0017,-0.0021,0.0023,0.0023,0.0022,0.0022,0,0,0.0285,0.029,0.0293,0.0309,0.0298,0.03,0.0296,0.0292,0.0301,0.0255,0.0258,0.02,0.0177,0.0157,0.0121,0.0089,0.0057,0.0058,0.0056,0.0039,-0.0016,-0.0026,-0.0033,0.0035,0.0035,0.0034,-0.0039,0,0.0302,0.0325,0.032,0.0347,0.0362,0.0348,0.0353,0.0344,0.0326,0.0317,0.0265,0.0248,0.0199,0.019,0.0148,0.0085,0.0047,0.0078,-0.0024,-0.0027,-0.0026,-0.0037,0.0033,-0.0043,-0.0044,-0.0045,-0.0046,0,0.032,0.0337,0.0369,0.0402,0.0408,0.0416,0.0439,0.044,0.0417,0.0398,0.0366,0.0327,0.0278,0.0234,0.0125,0.0148,0.0072,0.0015,0.001,-0.0013,-0.0045,-0.0046,-0.0055,-0.0054,-0.0053,-0.0053,-0.0052,0,0.0352,0.0379,0.0414,0.042,0.0441,0.0459,0.0474,0.0468,0.0488,0.0456,0.0459,0.0386,0.0361,0.0257,0.0139,0.0132,0.0016,-0.001,-0.0094,-0.0096,-0.0082,-0.0081,-0.0091,-0.0091,-0.0091,-0.0091,-0.009,0,0.0378,0.0409,0.0434,0.0452,0.0506,0.0505,0.0553,0.055,0.0558,0.0586,0.051,0.0507,0.0366,0.0285,0.0162,0.0025,0.003,-0.0087,-0.0114,-0.0064,-0.0061,-0.0086,-0.0084,-0.0093,-0.0093,-0.0092,-0.0092,0,0.0405,0.0418,0.0465,0.0502,0.0522,0.0562,0.0618,0.0651,0.0644,0.0677,0.0675,0.0603,0.0492,0.0345,0.0179,0.0067,-0.007,-0.0124,-0.0051,-0.0074,-0.0168,-0.0163,-0.0223,-0.0224,-0.0225,-0.0226,-0.0226,0,0.0418,0.0444,0.0507,0.0546,0.0565,0.0623,0.0668,0.0691,0.0729,0.0736,0.0757,0.0673,0.06,0.0365,0.0194,-0.0042,-0.0083,-0.0162,-0.0176,-0.016,-0.0181,-0.0175,-0.017,-0.0227,-0.0228,-0.0228,-0.0228,0,0.0447,0.047,0.051,0.0589,0.0646,0.0715,0.0778,0.0815,0.0843,0.0843,0.0825,0.0703,0.0575,0.0379,0.0197,0.0024,-0.0114,-0.0171,-0.0171,-0.0185,-0.0166,-0.0185,-0.0179,-0.0231,-0.023,-0.023,-0.023,0,0.047,0.0503,0.0558,0.0629,0.0707,0.078,0.0811,0.0855,0.0893,0.0898,0.0892,0.0745,0.0666,0.0413,0.0246,0.0075,0.002,-0.0052,-0.0059,-0.0058,0.0004,0.0054,0.0036,0,0,0,0,0,0.0489,0.0527,0.0594,0.0669,0.0749,0.0796,0.0877,0.09,0.0931,0.093,0.0914,0.0793,0.0547,0.0445,0.0273,0.0211,-0.0021,0.0001,-0.0109,-0.0246,-0.0243,-0.02,0,0,0,0,0,0,0.05,0.0562,0.0593,0.0691,0.0748,0.0839,0.0893,0.0916,0.0913,0.0918,0.0798,0.0735,0.0504,0.065,0.0267,0.0215,0.0116,-0.011,-0.0115,-0.0248,-0.0245,-0.0242,-0.0197,0,0,0,0,0]}]]